Year,Month,Day,Hour,Minute,Value (Times are PST for temperature in C)
2007,07,28,00,00,17.80
2007,07,28,00,01,17.80
2007,07,28,00,02,17.80
2007,07,28,00,03,17.80
2007,07,28,00,04,17.80
2007,07,28,00,05,17.70
2007,07,28,00,06,17.70
2007,07,28,00,07,17.70
2007,07,28,00,08,17.70
2007,07,28,00,09,17.60
2007,07,28,00,10,17.60
2007,07,28,00,11,17.60
2007,07,28,00,12,17.60
2007,07,28,01,02,15.70
2007,07,28,01,03,15.70
2007,07,28,01,04,15.70
2007,07,28,01,05,15.60
2007,07,28,01,06,15.60
2007,07,28,01,07,15.60
2007,07,28,01,08,15.60
2007,07,28,01,09,15.60
2007,07,28,01,10,15.50
2007,07,28,01,11,15.50
2007,07,28,01,12,15.50
2007,07,28,01,13,15.50
2007,07,28,01,14,15.50
2007,07,28,01,15,15.40
2007,07,28,01,16,15.40
2007,07,28,01,17,15.40
2007,07,28,01,18,15.40
2007,07,28,01,19,15.40
2007,07,28,01,20,15.30
2007,07,28,01,21,15.30
2007,07,28,01,22,15.30
2007,07,28,01,23,15.30
2007,07,28,01,24,15.30
2007,07,28,01,25,15.30
2007,07,28,01,26,15.20
2007,07,28,01,27,15.20
2007,07,28,01,28,15.20
2007,07,28,01,29,15.20
2007,07,28,01,30,15.20
2007,07,28,01,31,15.10
2007,07,28,01,32,15.10
2007,07,28,01,33,15.10
2007,07,28,01,34,15.00
2007,07,28,01,35,15.00
2007,07,28,01,36,15.00
2007,07,28,01,37,15.00
2007,07,28,01,38,15.00
2007,07,28,01,39,15.00
2007,07,28,01,40,15.00
2007,07,28,01,41,15.00
2007,07,28,01,42,15.00
2007,07,28,01,43,15.00
2007,07,28,01,44,15.00
2007,07,28,01,45,15.00
2007,07,28,01,46,15.00
2007,07,28,01,47,15.00
2007,07,28,01,48,15.00
2007,07,28,01,49,15.00
2007,07,28,01,50,14.90
2007,07,28,01,51,14.90
2007,07,28,01,52,14.90
2007,07,28,01,53,14.90
2007,07,28,01,54,14.80
2007,07,28,01,55,14.80
2007,07,28,01,56,14.80
2007,07,28,01,57,14.80
2007,07,28,01,58,14.80
2007,07,28,01,59,14.70
2007,07,28,02,00,14.70
2007,07,28,02,01,14.70
2007,07,28,02,02,14.70
2007,07,28,02,03,14.70
2007,07,28,02,04,14.60
2007,07,28,02,05,14.60
2007,07,28,02,06,14.60
2007,07,28,02,07,14.60
2007,07,28,02,08,14.50
2007,07,28,02,09,14.50
2007,07,28,02,10,14.50
2007,07,28,02,11,14.40
2007,07,28,02,12,14.40
2007,07,28,02,13,14.40
2007,07,28,02,14,14.40
2007,07,28,02,15,14.30
2007,07,28,02,16,14.30
2007,07,28,02,17,14.30
2007,07,28,02,18,14.30
2007,07,28,02,19,14.30
2007,07,28,02,20,14.30
2007,07,28,02,21,14.20
2007,07,28,02,22,14.20
2007,07,28,02,23,14.20
2007,07,28,02,24,14.20
2007,07,28,02,25,14.20
2007,07,28,02,26,14.20
2007,07,28,02,27,14.10
2007,07,28,02,28,14.10
2007,07,28,02,29,14.10
2007,07,28,02,30,14.10
2007,07,28,02,31,14.10
2007,07,28,02,32,14.10
2007,07,28,02,33,14.10
2007,07,28,02,34,14.00
2007,07,28,02,35,14.00
2007,07,28,02,36,14.00
2007,07,28,02,37,14.00
2007,07,28,02,38,14.00
2007,07,28,02,39,14.00
2007,07,28,02,40,13.90
2007,07,28,02,41,13.90
2007,07,28,02,42,13.90
2007,07,28,02,43,13.90
2007,07,28,02,44,13.90
2007,07,28,02,45,13.80
2007,07,28,02,46,13.80
2007,07,28,02,47,13.80
2007,07,28,02,48,13.80
2007,07,28,02,49,13.80
2007,07,28,02,50,13.80
2007,07,28,02,51,13.80
2007,07,28,02,52,13.80
2007,07,28,02,53,13.80
2007,07,28,02,54,13.70
2007,07,28,02,55,13.70
2007,07,28,02,56,13.70
2007,07,28,02,57,13.70
2007,07,28,02,58,13.70
2007,07,28,02,59,13.70
2007,07,28,03,00,13.70
2007,07,28,03,01,13.60
2007,07,28,03,02,13.60
2007,07,28,03,03,13.60
2007,07,28,03,04,13.60
2007,07,28,03,05,13.60
2007,07,28,03,06,13.60
2007,07,28,03,07,13.60
2007,07,28,03,08,13.60
2007,07,28,03,09,13.60
2007,07,28,03,10,13.60
2007,07,28,03,11,13.60
2007,07,28,03,12,13.50
2007,07,28,03,13,13.50
2007,07,28,03,14,13.50
2007,07,28,03,15,13.50
2007,07,28,03,16,13.50
2007,07,28,03,17,13.50
2007,07,28,03,18,13.50
2007,07,28,03,19,13.50
2007,07,28,03,20,13.50
2007,07,28,03,21,13.50
2007,07,28,03,22,13.50
2007,07,28,03,23,13.50
2007,07,28,03,24,13.40
2007,07,28,03,25,13.40
2007,07,28,03,26,13.40
2007,07,28,03,27,13.40
2007,07,28,03,28,13.40
2007,07,28,03,29,13.40
2007,07,28,03,30,13.40
2007,07,28,03,31,13.40
2007,07,28,03,32,13.40
2007,07,28,03,33,13.40
2007,07,28,03,34,13.40
2007,07,28,03,35,13.40
2007,07,28,03,36,13.40
2007,07,28,03,37,13.30
2007,07,28,03,38,13.30
2007,07,28,03,39,13.30
2007,07,28,03,40,13.30
2007,07,28,03,41,13.30
2007,07,28,03,42,13.30
2007,07,28,03,43,13.30
2007,07,28,03,44,13.30
2007,07,28,03,45,13.20
2007,07,28,03,46,13.20
2007,07,28,03,47,13.20
2007,07,28,03,48,13.20
2007,07,28,03,49,13.20
2007,07,28,03,50,13.20
2007,07,28,03,51,13.20
2007,07,28,03,52,13.20
2007,07,28,03,53,13.10
2007,07,28,03,54,13.10
2007,07,28,03,55,13.10
2007,07,28,03,56,13.10
2007,07,28,03,57,13.10
2007,07,28,03,58,13.10
2007,07,28,03,59,13.10
2007,07,28,04,00,13.00
2007,07,28,04,01,13.00
2007,07,28,04,02,13.00
2007,07,28,04,03,12.90
2007,07,28,04,04,12.90
2007,07,28,04,05,12.90
2007,07,28,04,06,12.90
2007,07,28,04,07,12.90
2007,07,28,04,08,12.90
2007,07,28,04,09,12.90
2007,07,28,04,10,12.90
2007,07,28,04,11,12.90
2007,07,28,04,12,12.90
2007,07,28,04,13,12.90
2007,07,28,04,14,12.90
2007,07,28,04,15,12.90
2007,07,28,04,16,12.90
2007,07,28,04,17,12.90
2007,07,28,04,18,12.90
2007,07,28,04,19,12.90
2007,07,28,04,20,12.80
2007,07,28,04,21,12.80
2007,07,28,04,22,12.80
2007,07,28,04,23,12.80
2007,07,28,04,24,12.80
2007,07,28,04,25,12.80
2007,07,28,04,26,12.80
2007,07,28,04,27,12.80
2007,07,28,04,28,12.80
2007,07,28,04,29,12.80
2007,07,28,04,30,12.80
2007,07,28,04,31,12.80
2007,07,28,04,32,12.70
2007,07,28,04,33,12.70
2007,07,28,04,34,12.70
2007,07,28,04,35,12.70
2007,07,28,04,36,12.70
2007,07,28,04,37,12.70
2007,07,28,04,38,12.70
2007,07,28,04,39,12.70
2007,07,28,04,40,12.70
2007,07,28,04,41,12.70
2007,07,28,04,42,12.70
2007,07,28,04,43,12.70
2007,07,28,04,44,12.70
2007,07,28,04,45,12.70
2007,07,28,04,46,12.70
2007,07,28,04,47,12.70
2007,07,28,04,48,12.70
2007,07,28,04,49,12.70
2007,07,28,04,50,12.70
2007,07,28,04,51,12.70
2007,07,28,04,52,12.80
2007,07,28,04,53,12.80
2007,07,28,04,54,12.80
2007,07,28,04,55,12.80
2007,07,28,04,56,12.80
2007,07,28,04,57,12.80
2007,07,28,04,58,12.80
2007,07,28,04,59,12.90
2007,07,28,05,00,12.90
2007,07,28,05,01,13.00
2007,07,28,05,02,13.00
2007,07,28,05,03,13.10
2007,07,28,05,04,13.10
2007,07,28,05,05,13.20
2007,07,28,05,06,13.20
2007,07,28,05,07,13.20
2007,07,28,05,08,13.30
2007,07,28,05,09,13.30
2007,07,28,05,10,13.30
2007,07,28,05,11,13.40
2007,07,28,05,12,13.40
2007,07,28,05,13,13.40
2007,07,28,05,14,13.40
2007,07,28,05,15,13.50
2007,07,28,05,16,13.60
2007,07,28,05,17,13.60
2007,07,28,05,18,13.60
2007,07,28,05,19,13.60
2007,07,28,05,20,13.70
2007,07,28,05,21,13.70
2007,07,28,05,22,13.70
2007,07,28,05,23,13.70
2007,07,28,05,24,13.80
2007,07,28,05,25,13.80
2007,07,28,05,26,13.80
2007,07,28,05,27,13.80
2007,07,28,05,28,13.80
2007,07,28,05,29,13.80
2007,07,28,05,30,13.80
2007,07,28,05,31,13.80
2007,07,28,05,32,13.80
2007,07,28,05,33,13.90
2007,07,28,05,34,13.90
2007,07,28,05,35,13.90
2007,07,28,05,36,13.90
2007,07,28,05,37,13.90
2007,07,28,05,38,14.00
2007,07,28,05,39,14.00
2007,07,28,05,40,14.00
2007,07,28,05,41,14.10
2007,07,28,05,42,14.10
2007,07,28,05,43,14.40
2007,07,28,05,44,14.60
2007,07,28,05,45,15.00
2007,07,28,05,46,15.00
2007,07,28,05,47,15.00
2007,07,28,05,48,15.10
2007,07,28,05,49,15.10
2007,07,28,05,50,15.10
2007,07,28,05,51,15.10
2007,07,28,05,52,15.10
2007,07,28,05,53,15.00
2007,07,28,05,54,15.00
2007,07,28,05,55,15.00
2007,07,28,05,56,15.00
2007,07,28,05,57,15.00
2007,07,28,05,58,15.00
2007,07,28,05,59,15.00
2007,07,28,06,00,14.90
2007,07,28,06,01,14.80
2007,07,28,06,02,14.80
2007,07,28,06,03,14.70
2007,07,28,06,04,14.60
2007,07,28,06,05,14.60
2007,07,28,06,06,14.50
2007,07,28,06,07,14.50
2007,07,28,06,08,14.40
2007,07,28,06,09,14.40
2007,07,28,06,10,14.40
2007,07,28,06,11,14.30
2007,07,28,06,12,14.30
2007,07,28,06,13,14.30
2007,07,28,06,14,14.30
2007,07,28,06,15,14.30
2007,07,28,06,16,14.20
2007,07,28,06,17,14.20
2007,07,28,06,18,14.20
2007,07,28,06,19,14.20
2007,07,28,06,20,14.20
2007,07,28,06,21,14.10
2007,07,28,06,22,14.10
2007,07,28,06,23,14.10
2007,07,28,06,24,14.10
2007,07,28,06,25,14.00
2007,07,28,06,26,14.00
2007,07,28,06,27,14.00
2007,07,28,06,28,13.90
2007,07,28,06,29,13.90
2007,07,28,06,30,13.90
2007,07,28,06,31,13.90
2007,07,28,06,32,13.90
2007,07,28,06,33,13.90
2007,07,28,06,34,13.80
2007,07,28,06,35,13.80
2007,07,28,06,36,13.80
2007,07,28,06,37,13.80
2007,07,28,06,38,13.80
2007,07,28,06,39,13.80
2007,07,28,06,40,13.80
2007,07,28,06,41,13.70
2007,07,28,06,42,13.70
2007,07,28,06,43,13.70
2007,07,28,06,44,13.70
2007,07,28,06,45,13.70
2007,07,28,06,46,13.70
2007,07,28,06,47,13.60
2007,07,28,06,48,13.60
2007,07,28,06,49,13.60
2007,07,28,06,50,13.60
2007,07,28,06,51,13.60
2007,07,28,06,52,13.60
2007,07,28,06,53,13.60
2007,07,28,06,54,13.60
2007,07,28,06,55,13.50
2007,07,28,06,56,13.50
2007,07,28,06,57,13.50
2007,07,28,06,58,13.50
2007,07,28,06,59,13.50
2007,07,28,07,00,13.50
2007,07,28,07,01,13.60
2007,07,28,07,02,13.60
2007,07,28,07,03,13.60
2007,07,28,07,04,13.70
2007,07,28,07,05,13.70
2007,07,28,07,06,13.80
2007,07,28,07,07,13.80
2007,07,28,07,08,13.90
2007,07,28,07,09,13.90
2007,07,28,07,10,14.00
2007,07,28,07,11,14.00
2007,07,28,07,12,14.00
2007,07,28,07,13,14.00
2007,07,28,07,14,14.00
2007,07,28,07,15,14.10
2007,07,28,07,16,14.10
2007,07,28,07,17,14.10
2007,07,28,07,18,14.10
2007,07,28,07,19,14.20
2007,07,28,07,20,14.30
2007,07,28,07,21,14.30
2007,07,28,07,22,14.40
2007,07,28,07,23,14.40
2007,07,28,07,24,14.50
2007,07,28,07,25,14.60
2007,07,28,07,26,14.70
2007,07,28,07,27,14.70
2007,07,28,07,28,14.90
2007,07,28,07,29,15.00
2007,07,28,07,30,15.00
2007,07,28,07,31,15.20
2007,07,28,07,32,15.30
2007,07,28,07,33,15.40
2007,07,28,07,34,15.60
2007,07,28,07,35,15.70
2007,07,28,07,36,15.90
2007,07,28,07,37,16.20
2007,07,28,07,38,16.30
2007,07,28,07,39,16.40
2007,07,28,07,40,16.50
2007,07,28,07,41,16.60
2007,07,28,07,42,16.60
2007,07,28,07,43,16.70
2007,07,28,07,44,16.70
2007,07,28,07,45,16.80
2007,07,28,07,46,16.90
2007,07,28,07,47,17.00
2007,07,28,07,48,17.10
2007,07,28,07,49,17.10
2007,07,28,07,50,17.20
2007,07,28,07,51,17.20
2007,07,28,07,52,17.30
2007,07,28,07,53,17.30
2007,07,28,07,54,17.30
2007,07,28,07,55,17.40
2007,07,28,07,56,17.40
2007,07,28,07,57,17.40
2007,07,28,07,58,17.40
2007,07,28,07,59,17.40
2007,07,28,08,00,17.40
2007,07,28,08,01,17.50
2007,07,28,08,02,17.50
2007,07,28,08,03,17.60
2007,07,28,08,04,17.60
2007,07,28,08,05,17.60
2007,07,28,08,06,17.60
2007,07,28,08,07,17.60
2007,07,28,08,08,17.70
2007,07,28,08,09,17.70
2007,07,28,08,10,17.70
2007,07,28,08,11,17.60
2007,07,28,08,12,17.60
2007,07,28,08,13,17.60
2007,07,28,08,14,17.50
2007,07,28,08,15,17.50
2007,07,28,08,16,17.60
2007,07,28,08,17,17.60
2007,07,28,08,18,17.60
2007,07,28,08,19,17.70
2007,07,28,08,20,17.70
2007,07,28,08,21,17.70
2007,07,28,08,22,17.80
2007,07,28,08,23,17.80
2007,07,28,08,24,17.90
2007,07,28,08,25,17.90
2007,07,28,08,26,17.90
2007,07,28,08,27,18.00
2007,07,28,08,28,18.10
2007,07,28,08,29,18.10
2007,07,28,08,30,18.10
2007,07,28,08,31,18.10
2007,07,28,08,32,18.20
2007,07,28,08,33,18.20
2007,07,28,08,34,18.30
2007,07,28,08,35,18.30
2007,07,28,08,36,18.30
2007,07,28,08,37,18.30
2007,07,28,08,38,18.40
2007,07,28,08,39,18.40
2007,07,28,08,40,18.40
2007,07,28,08,41,18.50
2007,07,28,08,42,18.50
2007,07,28,08,43,18.60
2007,07,28,08,44,18.60
2007,07,28,08,45,18.60
2007,07,28,08,46,18.60
2007,07,28,08,47,18.70
2007,07,28,08,48,18.70
2007,07,28,08,49,18.60
2007,07,28,08,50,18.60
2007,07,28,08,51,18.60
2007,07,28,08,52,18.70
2007,07,28,08,53,18.70
2007,07,28,08,54,18.70
2007,07,28,08,55,18.70
2007,07,28,08,56,18.70
2007,07,28,08,57,18.70
2007,07,28,08,58,18.70
2007,07,28,08,59,18.80
2007,07,28,09,00,18.80
2007,07,28,09,01,18.90
2007,07,28,09,02,19.00
2007,07,28,09,03,19.10
2007,07,28,09,04,19.10
2007,07,28,09,05,19.00
2007,07,28,09,06,19.00
2007,07,28,09,07,18.90
2007,07,28,09,08,18.80
2007,07,28,09,09,18.80
2007,07,28,09,10,18.70
2007,07,28,09,11,18.70
2007,07,28,09,12,18.70
2007,07,28,09,13,18.70
2007,07,28,09,14,18.80
2007,07,28,09,15,18.70
2007,07,28,09,16,18.70
2007,07,28,09,17,18.70
2007,07,28,09,18,18.70
2007,07,28,09,19,18.70
2007,07,28,09,20,18.70
2007,07,28,09,21,18.70
2007,07,28,09,22,18.80
2007,07,28,09,23,18.80
2007,07,28,09,24,18.80
2007,07,28,09,25,18.80
2007,07,28,09,26,18.80
2007,07,28,09,27,18.80
2007,07,28,09,28,18.80
2007,07,28,09,29,18.80
2007,07,28,09,30,18.90
2007,07,28,09,31,18.90
2007,07,28,09,32,18.90
2007,07,28,09,33,18.90
2007,07,28,09,34,19.00
2007,07,28,09,35,19.00
2007,07,28,09,36,19.10
2007,07,28,09,37,19.10
2007,07,28,09,38,19.00
2007,07,28,09,39,19.00
2007,07,28,09,40,18.90
2007,07,28,09,41,19.00
2007,07,28,09,42,18.90
2007,07,28,09,43,18.90
2007,07,28,09,44,18.90
2007,07,28,09,45,18.90
2007,07,28,09,46,19.00
2007,07,28,09,47,19.10
2007,07,28,09,48,19.20
2007,07,28,09,49,19.20
2007,07,28,09,50,19.10
2007,07,28,09,51,19.00
2007,07,28,09,52,18.90
2007,07,28,09,53,18.90
2007,07,28,09,54,19.00
2007,07,28,09,55,19.00
2007,07,28,09,56,19.00
2007,07,28,09,57,19.10
2007,07,28,09,58,19.30
2007,07,28,09,59,19.40
2007,07,28,10,00,19.50
2007,07,28,10,01,19.50
2007,07,28,10,02,19.50
2007,07,28,10,03,19.60
2007,07,28,10,04,19.60
2007,07,28,10,05,19.70
2007,07,28,10,06,19.80
2007,07,28,10,07,19.90
2007,07,28,10,08,19.90
2007,07,28,10,09,19.80
2007,07,28,10,10,19.80
2007,07,28,10,11,19.80
2007,07,28,10,12,19.80
2007,07,28,10,13,19.80
2007,07,28,10,14,19.70
2007,07,28,10,15,19.80
2007,07,28,10,16,19.80
2007,07,28,10,17,19.80
2007,07,28,10,18,19.70
2007,07,28,10,19,19.80
2007,07,28,10,20,19.90
2007,07,28,10,21,19.90
2007,07,28,10,22,19.90
2007,07,28,10,23,19.90
2007,07,28,10,24,19.90
2007,07,28,10,25,19.90
2007,07,28,10,26,19.90
2007,07,28,10,27,19.90
2007,07,28,10,28,20.00
2007,07,28,10,29,20.10
2007,07,28,10,30,20.20
2007,07,28,10,31,20.20
2007,07,28,10,32,20.20
2007,07,28,10,33,20.30
2007,07,28,10,34,20.30
2007,07,28,10,35,20.20
2007,07,28,10,36,20.30
2007,07,28,10,37,20.30
2007,07,28,10,38,20.40
2007,07,28,10,39,20.50
2007,07,28,10,40,20.50
2007,07,28,10,41,20.60
2007,07,28,10,42,20.50
2007,07,28,10,43,20.50
2007,07,28,10,44,20.50
2007,07,28,10,45,20.50
2007,07,28,10,46,20.50
2007,07,28,10,47,20.60
2007,07,28,10,48,20.60
2007,07,28,10,49,20.70
2007,07,28,10,50,20.70
2007,07,28,10,51,20.80
2007,07,28,10,52,20.90
2007,07,28,10,53,21.00
2007,07,28,10,54,20.90
2007,07,28,10,55,20.90
2007,07,28,10,56,20.80
2007,07,28,10,57,20.80
2007,07,28,10,58,20.70
2007,07,28,10,59,20.70
2007,07,28,11,00,20.60
2007,07,28,11,01,20.60
2007,07,28,11,02,20.60
2007,07,28,11,03,20.70
2007,07,28,11,04,20.80
2007,07,28,11,05,20.70
2007,07,28,11,06,20.60
2007,07,28,11,07,20.60
2007,07,28,11,08,20.50
2007,07,28,11,09,20.40
2007,07,28,11,10,20.30
2007,07,28,11,11,20.30
2007,07,28,11,12,20.30
2007,07,28,11,13,20.50
2007,07,28,11,14,20.60
2007,07,28,11,15,20.60
2007,07,28,11,16,20.50
2007,07,28,11,17,20.50
2007,07,28,11,18,20.50
2007,07,28,11,19,20.50
2007,07,28,11,20,20.40
2007,07,28,11,21,20.40
2007,07,28,11,22,20.40
2007,07,28,11,23,20.40
2007,07,28,11,24,20.50
2007,07,28,11,25,20.50
2007,07,28,11,26,20.40
2007,07,28,11,27,20.40
2007,07,28,11,28,20.50
2007,07,28,11,29,20.50
2007,07,28,11,30,20.50
2007,07,28,11,31,20.50
2007,07,28,11,32,20.60
2007,07,28,11,33,20.60
2007,07,28,11,34,20.70
2007,07,28,11,35,20.80
2007,07,28,11,36,20.80
2007,07,28,11,37,20.80
2007,07,28,11,38,20.70
2007,07,28,11,39,20.60
2007,07,28,11,40,20.60
2007,07,28,11,41,20.70
2007,07,28,11,42,20.70
2007,07,28,11,43,20.80
2007,07,28,11,44,20.90
2007,07,28,11,45,20.90
2007,07,28,11,46,21.00
2007,07,28,11,47,20.90
2007,07,28,11,48,21.00
2007,07,28,11,49,21.10
2007,07,28,11,50,21.10
2007,07,28,11,51,21.10
2007,07,28,11,52,21.00
2007,07,28,11,53,21.00
2007,07,28,11,54,21.00
2007,07,28,11,55,21.10
2007,07,28,11,56,21.20
2007,07,28,11,57,21.30
2007,07,28,11,58,21.30
2007,07,28,11,59,21.40
2007,07,28,12,00,21.40
2007,07,28,12,01,21.30
2007,07,28,12,02,21.20
2007,07,28,12,03,21.20
2007,07,28,12,04,21.30
2007,07,28,12,05,21.30
2007,07,28,12,06,21.40
2007,07,28,12,07,21.40
2007,07,28,12,08,21.20
2007,07,28,12,09,21.10
2007,07,28,12,10,21.20
2007,07,28,12,11,21.20
2007,07,28,12,12,21.20
2007,07,28,12,13,21.20
2007,07,28,12,14,21.20
2007,07,28,12,15,21.20
2007,07,28,12,16,21.20
2007,07,28,12,17,21.20
2007,07,28,12,18,21.40
2007,07,28,12,19,21.50
2007,07,28,12,20,21.50
2007,07,28,12,21,21.40
2007,07,28,12,22,21.30
2007,07,28,12,23,21.40
2007,07,28,12,24,21.40
2007,07,28,12,25,21.50
2007,07,28,12,26,21.70
2007,07,28,12,27,21.90
2007,07,28,12,28,22.10
2007,07,28,12,29,22.00
2007,07,28,12,30,21.80
2007,07,28,12,31,21.40
2007,07,28,12,32,21.00
2007,07,28,12,33,20.80
2007,07,28,12,34,20.90
2007,07,28,12,35,20.90
2007,07,28,12,36,20.90
2007,07,28,12,37,20.90
2007,07,28,12,38,20.90
2007,07,28,12,39,21.00
2007,07,28,12,40,21.00
2007,07,28,12,41,21.10
2007,07,28,12,42,21.10
2007,07,28,12,43,21.20
2007,07,28,12,44,21.10
2007,07,28,12,45,21.00
2007,07,28,12,46,20.90
2007,07,28,12,47,20.80
2007,07,28,12,48,20.80
2007,07,28,12,49,20.80
2007,07,28,12,50,20.90
2007,07,28,12,51,21.00
2007,07,28,12,52,21.10
2007,07,28,12,53,21.10
2007,07,28,12,54,21.00
2007,07,28,12,55,21.00
2007,07,28,12,56,21.00
2007,07,28,12,57,21.00
2007,07,28,12,58,21.10
2007,07,28,12,59,21.20
2007,07,28,13,00,21.10
2007,07,28,13,01,20.90
2007,07,28,13,02,20.80
2007,07,28,13,03,20.80
2007,07,28,13,04,20.80
2007,07,28,13,05,20.90
2007,07,28,13,06,21.00
2007,07,28,13,07,21.10
2007,07,28,13,08,21.10
2007,07,28,13,09,21.10
2007,07,28,13,10,21.10
2007,07,28,13,11,21.10
2007,07,28,13,12,21.10
2007,07,28,13,13,20.90
2007,07,28,13,14,20.70
2007,07,28,13,15,20.70
2007,07,28,13,16,20.70
2007,07,28,13,17,20.60
2007,07,28,13,18,20.70
2007,07,28,13,19,20.80
2007,07,28,13,20,20.80
2007,07,28,13,21,20.90
2007,07,28,13,22,20.90
2007,07,28,13,23,20.90
2007,07,28,13,24,20.80
2007,07,28,13,25,20.80
2007,07,28,13,26,20.80
2007,07,28,13,27,20.70
2007,07,28,13,28,20.70
2007,07,28,13,29,20.80
2007,07,28,13,30,20.80
2007,07,28,13,31,20.80
2007,07,28,13,32,20.70
2007,07,28,13,33,20.60
2007,07,28,13,34,20.40
2007,07,28,13,35,20.20
2007,07,28,13,36,20.10
2007,07,28,13,37,20.00
2007,07,28,13,38,20.00
2007,07,28,13,39,20.10
2007,07,28,13,40,20.20
2007,07,28,13,41,20.30
2007,07,28,13,42,20.40
2007,07,28,13,43,20.50
2007,07,28,13,44,20.40
2007,07,28,13,45,20.20
2007,07,28,13,46,20.10
2007,07,28,13,47,20.10
2007,07,28,13,48,20.00
2007,07,28,13,49,20.20
2007,07,28,13,50,20.30
2007,07,28,13,51,20.40
2007,07,28,13,52,20.50
2007,07,28,13,53,20.50
2007,07,28,13,54,20.50
2007,07,28,13,55,20.40
2007,07,28,13,56,20.30
2007,07,28,13,57,20.20
2007,07,28,13,58,20.30
2007,07,28,13,59,20.40
2007,07,28,14,00,20.30
2007,07,28,14,01,20.30
2007,07,28,14,02,20.30
2007,07,28,14,03,20.10
2007,07,28,14,04,20.00
2007,07,28,14,05,19.90
2007,07,28,14,06,19.80
2007,07,28,14,07,19.80
2007,07,28,14,08,19.90
2007,07,28,14,09,19.80
2007,07,28,14,10,19.80
2007,07,28,14,11,19.70
2007,07,28,14,12,19.70
2007,07,28,14,13,19.80
2007,07,28,14,14,19.90
2007,07,28,14,15,19.90
2007,07,28,14,16,19.90
2007,07,28,14,17,19.90
2007,07,28,14,18,20.00
2007,07,28,14,19,20.00
2007,07,28,14,20,20.10
2007,07,28,14,21,20.20
2007,07,28,14,22,20.30
2007,07,28,14,23,20.40
2007,07,28,14,24,20.40
2007,07,28,14,25,20.50
2007,07,28,14,26,20.50
2007,07,28,14,27,20.50
2007,07,28,14,28,20.60
2007,07,28,14,29,20.60
2007,07,28,14,30,20.50
2007,07,28,14,31,20.40
2007,07,28,14,32,20.30
2007,07,28,14,33,20.40
2007,07,28,14,34,20.50
2007,07,28,14,35,20.60
2007,07,28,14,36,20.60
2007,07,28,14,37,20.50
2007,07,28,14,38,20.50
2007,07,28,14,39,20.50
2007,07,28,14,40,20.60
2007,07,28,14,41,20.80
2007,07,28,14,42,20.70
2007,07,28,14,43,20.50
2007,07,28,14,44,20.50
2007,07,28,14,45,20.50
2007,07,28,14,46,20.60
2007,07,28,14,47,20.70
2007,07,28,14,48,20.70
2007,07,28,14,49,20.60
2007,07,28,14,50,20.50
2007,07,28,14,51,20.60
2007,07,28,14,52,20.60
2007,07,28,14,53,20.60
2007,07,28,14,54,20.60
2007,07,28,14,55,20.60
2007,07,28,14,56,20.40
2007,07,28,14,57,20.20
2007,07,28,14,58,20.10
2007,07,28,14,59,20.10
2007,07,28,15,00,20.10
2007,07,28,15,01,20.20
2007,07,28,15,02,20.10
2007,07,28,15,03,20.00
2007,07,28,15,04,19.90
2007,07,28,15,05,19.90
2007,07,28,15,06,19.80
2007,07,28,15,07,19.90
2007,07,28,15,08,20.00
2007,07,28,15,09,20.20
2007,07,28,15,10,20.40
2007,07,28,15,11,20.50
2007,07,28,15,12,20.60
2007,07,28,15,13,20.70
2007,07,28,15,14,20.80
2007,07,28,15,15,20.90
2007,07,28,15,16,21.00
2007,07,28,15,17,21.20
2007,07,28,15,18,21.30
2007,07,28,15,19,21.30
2007,07,28,15,20,21.20
2007,07,28,15,21,20.90
2007,07,28,15,22,20.70
2007,07,28,15,23,20.60
2007,07,28,15,24,20.60
2007,07,28,15,25,20.50
2007,07,28,15,26,20.50
2007,07,28,15,27,20.40
2007,07,28,15,28,20.40
2007,07,28,15,29,20.30
2007,07,28,15,30,20.20
2007,07,28,15,31,20.00
2007,07,28,15,32,20.00
2007,07,28,15,33,20.10
2007,07,28,15,34,20.10
2007,07,28,15,35,20.20
2007,07,28,15,36,20.30
2007,07,28,15,37,20.30
2007,07,28,15,38,20.40
2007,07,28,15,39,20.60
2007,07,28,15,40,20.60
2007,07,28,15,41,20.70
2007,07,28,15,42,20.80
2007,07,28,15,43,20.80
2007,07,28,15,44,20.70
2007,07,28,15,45,20.60
2007,07,28,15,46,20.60
2007,07,28,15,47,20.60
2007,07,28,15,48,20.60
2007,07,28,15,49,20.60
2007,07,28,15,50,20.50
2007,07,28,15,51,20.40
2007,07,28,15,52,20.40
2007,07,28,15,53,20.30
2007,07,28,15,54,20.40
2007,07,28,15,55,20.40
2007,07,28,15,56,20.40
2007,07,28,15,57,20.40
2007,07,28,15,58,20.40
2007,07,28,15,59,20.40
2007,07,28,16,00,20.40
2007,07,28,16,01,20.50
2007,07,28,16,02,20.60
2007,07,28,16,03,20.60
2007,07,28,16,04,20.60
2007,07,28,16,05,20.60
2007,07,28,16,06,20.50
2007,07,28,16,07,20.50
2007,07,28,16,08,20.60
2007,07,28,16,09,20.70
2007,07,28,16,10,20.80
2007,07,28,16,11,20.90
2007,07,28,16,12,20.90
2007,07,28,16,13,21.00
2007,07,28,16,14,21.10
2007,07,28,16,15,21.20
2007,07,28,16,16,21.30
2007,07,28,16,17,21.40
2007,07,28,16,18,21.40
2007,07,28,16,19,21.40
2007,07,28,16,20,21.60
2007,07,28,16,21,21.70
2007,07,28,16,22,21.70
2007,07,28,16,23,21.80
2007,07,28,16,24,21.80
2007,07,28,16,25,21.80
2007,07,28,16,26,21.70
2007,07,28,16,27,21.70
2007,07,28,16,28,21.70
2007,07,28,16,29,21.70
2007,07,28,16,30,21.70
2007,07,28,16,31,21.50
2007,07,28,16,32,21.40
2007,07,28,16,33,21.40
2007,07,28,16,34,21.40
2007,07,28,16,35,21.40
2007,07,28,16,36,21.40
2007,07,28,16,37,21.50
2007,07,28,16,38,21.50
2007,07,28,16,39,21.50
2007,07,28,16,40,21.50
2007,07,28,16,41,21.50
2007,07,28,16,42,21.50
2007,07,28,16,43,21.50
2007,07,28,16,44,21.50
2007,07,28,16,45,21.50
2007,07,28,16,46,21.60
2007,07,28,16,47,21.70
2007,07,28,16,48,21.80
2007,07,28,16,49,21.90
2007,07,28,16,50,22.00
2007,07,28,16,51,22.00
2007,07,28,16,52,22.00
2007,07,28,16,53,21.90
2007,07,28,16,54,21.80
2007,07,28,16,55,21.80
2007,07,28,16,56,21.80
2007,07,28,16,57,21.70
2007,07,28,16,58,21.60
2007,07,28,16,59,21.50
2007,07,28,17,00,21.30
2007,07,28,17,01,21.20
2007,07,28,17,02,21.10
2007,07,28,17,03,20.90
2007,07,28,17,04,20.80
2007,07,28,17,05,20.80
2007,07,28,17,06,20.80
2007,07,28,17,07,20.80
2007,07,28,17,08,20.70
2007,07,28,17,09,20.50
2007,07,28,17,10,20.40
2007,07,28,17,11,20.40
2007,07,28,17,12,20.50
2007,07,28,17,13,20.40
2007,07,28,17,14,20.40
2007,07,28,17,15,20.40
2007,07,28,17,16,20.50
2007,07,28,17,17,20.60
2007,07,28,17,18,20.70
2007,07,28,17,19,20.80
2007,07,28,17,20,20.90
2007,07,28,17,21,20.90
2007,07,28,17,22,20.80
2007,07,28,17,23,20.80
2007,07,28,17,24,20.80
2007,07,28,17,25,20.80
2007,07,28,17,26,20.70
2007,07,28,17,27,20.70
2007,07,28,17,28,20.60
2007,07,28,17,29,20.60
2007,07,28,17,30,20.50
2007,07,28,17,31,20.50
2007,07,28,17,32,20.50
2007,07,28,17,33,20.60
2007,07,28,17,34,20.60
2007,07,28,17,35,20.60
2007,07,28,17,36,20.60
2007,07,28,17,37,20.70
2007,07,28,17,38,20.80
2007,07,28,17,39,20.80
2007,07,28,17,40,20.80
2007,07,28,17,41,20.70
2007,07,28,17,42,20.60
2007,07,28,17,43,20.50
2007,07,28,17,44,20.50
2007,07,28,17,45,20.50
2007,07,28,17,46,20.50
2007,07,28,17,47,20.50
2007,07,28,17,48,20.40
2007,07,28,17,49,20.40
2007,07,28,17,50,20.30
2007,07,28,17,51,20.30
2007,07,28,17,52,20.30
2007,07,28,17,53,20.30
2007,07,28,17,54,20.40
2007,07,28,17,55,20.40
2007,07,28,17,56,20.40
2007,07,28,17,57,20.40
2007,07,28,17,58,20.40
2007,07,28,17,59,20.40
2007,07,28,18,00,20.40
2007,07,28,18,01,20.50
2007,07,28,18,02,20.60
2007,07,28,18,03,20.70
2007,07,28,18,04,20.70
2007,07,28,18,05,20.80
2007,07,28,18,06,20.70
2007,07,28,18,07,20.70
2007,07,28,18,08,20.70